カタログに戻る

STARLINK-31379

運用中通信VLEO
NORAD 58984·PAYLOAD·🇺🇸 United States

打ち上げ Feb 15, 2024 から Vandenberg Space Force Base

Loading…

次のパス (今後24時間)

TLE

最新Source: CelesTrak SupGP

元期: Sep 14, 2026, 21:13 UTC

1 58984C 24031V   26257.88451389 -.00055089  00000+0 -16274-2 0  2579
2 58984  53.1572 135.8902 0001341  84.9270  76.3470 15.34421404    12

AllMySatでSTARLINK-31379をリアルタイム追跡

Download on the App Store